Wind_Speed
1 1 2 1 1 1 2 2 2 2 2 2 2 2 2 3 3 3 3 3 3 2 2 2 2 2 2 2 2 2 2 2 3 3 3 4 4 4 5 5 5 5 5
1 2 2 2 2 2 2 2 2 2 2 3 3 3 3 3 3 3 3 3 2 2 2 2 2 3 2 3 3 3 3 3 3 3 4 4 5 5 5 5 6 6 6
2 2 3 3 3 2 2 2 3 3 3 3 3 3 4 3 3 4 4 3 3 3 3 3 3 3 3 3 4 4 4 4 4 4 4 4 5 5 5 6 6 6 6
3 3 3 3 3 3 3 3 3 4 4 4 4 4 4 4 4 5 5 4 4 3 3 4 3 3 3 4 4 5 5 5 5 4 4 5 5 5 5 6 7 6 7
4 4 4 4 4 4 4 4 4 4 5 5 5 5 5 5 5 5 5 5 4 4 4 4 4 4 4 5 5 5 5 5 5 5 5 5 5 5 6 6 6 6 7
5 5 5 5 5 5 6 5 5 5 5 6 6 6 6 7 6 6 6 5 5 5 5 5 5 5 5 5 5 5 6 6 6 5 5 6 6 6 6 6 6 7 7
6 5 5 5 6 6 6 6 6 6 6 6 6 6 7 6 6 7 7 6 6 5 5 5 6 5 5 5 5 6 6 6 6 6 6 6 7 7 7 7 7 8 8
6 6 6 5 6 6 7 7 7 7 6 6 7 7 6 6 6 7 7 6 6 6 6 6 6 6 6 6 7 7 7 7 7 7 7 6 7 7 7 7 8 8 8
6 6 6 6 6 7 6 6 7 6 6 7 7 7 6 7 7 7 7 7 6 7 7 7 7 7 7 7 8 8 8 8 8 7 7 7 7 8 8 8 8 8 9
7 6 6 6 6 6 6 6 7 7 7 7 6 7 7 7 7 8 7 7 7 7 7 7 7 7 8 8 9 9 9 9 8 8 8 8 8 8 8 9 9 9 9
7 7 6 6 6 6 6 6 6 7 7 7 6 7 7 7 7 7 7 7 7 7 7 7 7 8 8 9 9 9 9 9 9 9 9 8 9 9 9 9 10 9 10
6 6 6 6 7 7 6 6 5 6 6 6 7 7 6 6 6 6 7 7 7 7 7 7 8 8 8 8 9 9 9 10 10 9 9 9 9 9 10 10 10 10 10
7 7 7 6 7 7 6 5 5 5 6 6 7 6 6 6 6 6 7 7 8 8 8 8 8 8 8 8 9 9 10 10 10 10 10 10 10 10 9 9 9 10 10
6 7 7 7 7 7 7 6 6 6 6 6 7 6 6 7 7 7 8 8 8 8 8 9 9 9 9 9 10 10 10 10 10 10 10 11 11 10 10 9 9 9 10
6 7 7 7 7 7 7 7 7 7 7 7 7 7 7 8 9 9 9 8 8 8 9 10 10 10 10 10 10 10 10 9 10 10 11 11 11 10 10 10 9 9 9
6 7 7 7 7 8 8 8 8 7 7 7 7 8 8 9 9 10 9 8 9 9 10 10 10 10 10 10 10 10 10 10 10 10 10 10 11 11 10 10 10 10 10
6 6 6 7 7 7 7 7 7 7 7 7 8 8 8 9 9 10 9 9 9 10 10 10 10 10 10 10 10 10 10 10 10 10 10 10 10 10 10 11 11 10 10
5 5 6 7 6 7 7 7 7 7 7 7 7 8 8 8 9 9 9 10 10 10 10 10 10 10 10 11 10 10 10 11 11 11 11 11 11 11 11 11 11 11 11
4 5 5 6 6 6 6 6 7 7 7 7 7 7 7 7 8 8 9 9 10 11 11 11 10 10 11 11 10 10 11 11 11 11 11 12 12 12 12 12 12 12 12
4 4 4 5 5 6 5 6 6 7 7 7 7 7 7 7 7 8 8 9 9 11 11 11 10 10 10 10 11 10 10 11 11 11 12 12 12 12 12 13 13 13 13
4 4 4 4 5 5 6 6 6 7 7 7 7 7 7 8 8 9 9 10 10 11 11 11 10 10 10 11 11 11 11 11 12 12 12 12 12 13 13 13 14 14 14
4 5 5 5 5 5 5 5 6 6 7 7 6 7 7 8 9 9 9 9 9 9 9 10 10 11 11 12 12 11 11 12 12 12 12 13 13 13 14 14 15 14 15
5 5 5 5 6 6 6 6 6 6 7 7 8 9 9 9 9 9 9 9 9 9 9 9 10 11 11 11 12 12 12 12 12 12 12 13 13 14 14 14 15 15 15
6 6 6 6 7 7 7 7 7 7 7 8 8 9 9 9 10 10 10 9 10 10 10 10 10 10 11 11 11 12 12 12 13 13 14 14 14 14 15 15 15 15 15
7 7 7 7 7 7 7 7 7 8 8 8 9 9 9 10 10 10 10 10 10 11 11 10 11 11 11 11 11 12 12 13 13 14 14 14 15 15 16 16 16 16 16
7 7 8 8 8 8 8 8 9 9 9 9 9 9 9 10 10 10 10 11 11 12 12 11 12 12 12 12 12 13 14 14 14 15 15 15 15 16 16 16 16 16 16
Wind_Direction
212 214 232 231 255 285 320 338 349 343 337 333 329 336 351 360 2 354 347 347 344 335 327 308 283 268 256 242 233 233 240 245 234 239 245 247 245 237 231 236 244 245 242
215 227 239 244 258 281 309 332 339 335 320 316 313 322 332 340 343 341 340 334 335 331 314 301 282 274 266 261 249 246 252 251 257 259 256 250 247 245 242 240 247 248 247
245 244 245 243 256 276 296 307 326 320 313 309 307 310 314 313 323 329 327 314 310 309 301 294 281 274 271 269 271 266 261 259 268 261 261 258 252 247 244 245 246 250 247
249 256 258 259 266 272 281 291 305 305 306 304 302 301 303 303 309 314 314 303 303 302 297 290 282 279 276 274 273 272 269 265 261 263 266 264 259 254 252 251 251 250 247
260 264 275 280 275 275 277 284 294 299 299 300 294 292 290 297 303 304 300 296 296 299 299 289 280 275 274 275 273 275 273 266 266 269 268 265 263 263 258 257 251 249 247
265 267 275 274 278 281 282 284 286 288 287 287 285 284 286 287 291 294 286 285 288 289 292 292 287 275 276 272 272 270 272 276 271 271 270 268 269 267 264 259 254 255 254
263 276 284 272 271 272 274 279 285 288 285 280 277 283 289 285 283 287 281 278 281 282 286 293 286 279 278 276 276 272 274 278 276 273 274 274 272 270 268 263 255 258 258
279 281 284 281 275 270 272 277 282 280 279 273 275 282 287 283 282 280 276 278 281 280 280 282 280 276 275 276 275 273 274 276 275 275 277 276 272 268 266 264 257 256 257
283 278 277 281 279 273 273 277 281 284 278 274 279 279 283 280 281 277 277 283 281 279 279 276 275 273 273 275 276 275 275 277 277 274 274 271 271 268 267 266 262 259 259
279 277 281 279 281 276 271 272 280 284 286 283 278 282 284 278 278 278 277 283 283 282 285 283 279 279 279 278 277 276 277 278 277 275 272 270 270 271 270 268 268 268 266
271 269 273 271 279 277 272 270 278 283 283 284 285 282 286 277 281 283 277 282 284 286 288 286 282 284 286 283 281 278 276 275 274 274 273 271 269 272 271 269 269 268 270
267 268 270 272 273 276 276 272 280 286 284 283 284 281 277 279 284 286 282 283 284 285 287 287 285 285 285 286 284 281 279 275 273 271 270 272 272 274 275 271 268 269 268
270 268 269 272 274 279 284 284 285 288 291 293 285 279 278 273 279 280 276 281 282 281 283 284 282 283 282 281 279 279 280 278 277 271 270 273 274 275 275 274 270 268 268
269 274 273 273 274 277 282 285 288 290 289 291 285 282 278 272 272 276 278 281 282 280 280 280 283 282 279 279 278 277 277 278 278 276 273 273 274 273 273 274 271 270 268
265 272 277 275 276 277 282 283 288 289 286 284 283 281 277 274 272 276 278 280 280 281 282 283 284 279 274 275 277 277 276 277 277 277 274 273 272 272 272 272 273 272 269
269 273 273 273 276 276 278 280 282 288 288 286 280 278 277 275 275 278 276 277 280 281 282 286 284 278 275 275 277 277 276 276 277 278 276 272 273 275 275 276 277 276 273
276 277 270 271 272 271 274 278 278 283 286 284 281 276 276 272 274 274 272 274 277 278 278 281 278 274 277 277 279 278 277 277 278 280 279 278 275 275 276 275 275 272 274
279 280 275 270 270 271 272 275 275 280 283 285 280 278 278 275 273 273 272 272 275 279 279 280 277 271 273 276 276 275 275 276 277 276 278 278 276 276 276 274 274 274 272
286 283 281 272 268 271 272 274 275 277 280 283 281 280 282 282 277 277 275 272 278 279 278 279 277 274 274 275 274 276 277 277 276 275 276 277 277 278 278 277 275 274 273
282 287 292 287 281 280 280 284 280 280 281 281 280 280 281 284 282 285 281 276 279 278 276 277 275 276 274 273 274 277 279 280 279 278 278 277 277 279 279 278 275 273 273
279 287 296 296 290 286 286 287 284 281 282 281 283 285 286 284 283 284 284 280 280 280 278 277 278 277 274 273 274 275 278 278 281 283 281 279 279 279 278 278 276 275 274
278 288 292 295 297 296 295 295 286 282 284 286 287 288 286 284 283 281 285 284 282 285 287 286 282 280 279 275 273 274 276 279 282 283 281 280 280 279 279 279 277 277 277
279 287 284 288 292 293 291 292 292 286 283 283 283 288 287 284 284 284 283 283 287 290 289 288 288 283 278 277 275 275 276 277 280 282 283 281 281 280 279 280 278 277 276
271 277 279 278 283 288 290 290 292 290 285 285 287 289 290 289 289 288 285 285 287 288 287 284 286 285 279 277 277 278 279 282 283 284 284 283 282 282 281 281 280 278 278
271 277 278 279 281 287 290 291 291 293 290 287 290 293 293 291 291 291 290 290 289 289 289 285 288 286 282 279 278 279 282 284 285 283 283 282 282 282 283 283 281 278 279
278 281 281 282 284 286 286 287 287 290 291 290 291 295 297 296 294 292 292 291 290 290 290 287 287 288 286 282 281 281 282 284 285 283 282 282 282 282 282 283 281 279 279
Height
5878 5878 5878 5878 5878 5878 5878 5878 5878 5877 5877 5877 5877 5877 5877 5877 5877 5877 5877 5876 5876 5876 5876 5877 5877 5878 5878 5878 5879 5879 5879 5879 5880 5880 5880 5881 5881 5881 5881 5881 5882 5882 5882
5877 5877 5878 5878 5878 5878 5877 5877 5877 5877 5877 5877 5877 5877 5877 5876 5876 5877 5876 5876 5876 5876 5876 5876 5877 5877 5877 5878 5878 5878 5879 5879 5879 5879 5879 5880 5880 5880 5880 5881 5881 5881 5882
5877 5877 5877 5877 5877 5877 5877 5877 5877 5876 5876 5876 5876 5876 5876 5876 5876 5876 5876 5876 5875 5875 5876 5876 5876 5876 5877 5877 5877 5877 5878 5878 5878 5878 5879 5879 5879 5879 5880 5880 5880 5880 5881
5877 5877 5877 5877 5877 5876 5876 5876 5876 5876 5876 5876 5876 5875 5875 5875 5875 5875 5875 5875 5875 5875 5875 5875 5875 5876 5876 5876 5876 5877 5877 5877 5877 5878 5878 5878 5878 5878 5878 5879 5879 5879 5879
5876 5876 5876 5876 5876 5876 5876 5876 5875 5875 5875 5875 5875 5875 5875 5875 5874 5874 5874 5874 5874 5874 5874 5874 5875 5875 5875 5875 5875 5875 5876 5876 5876 5877 5877 5877 5877 5877 5877 5877 5878 5878 5878
5876 5875 5875 5875 5875 5875 5875 5875 5874 5874 5874 5874 5874 5874 5874 5874 5873 5873 5873 5873 5873 5873 5874 5874 5873 5874 5874 5874 5874 5874 5875 5875 5875 5875 5875 5876 5876 5876 5876 5876 5876 5876 5877
5875 5874 5874 5874 5874 5874 5874 5874 5873 5873 5873 5873 5873 5873 5873 5872 5872 5872 5872 5872 5872 5872 5872 5872 5872 5873 5873 5873 5873 5873 5873 5874 5874 5874 5874 5874 5874 5874 5874 5874 5874 5875 5875
5873 5873 5873 5872 5872 5872 5872 5872 5872 5872 5872 5872 5872 5872 5871 5871 5871 5871 5871 5871 5871 5871 5871 5871 5872 5872 5872 5872 5872 5872 5872 5872 5872 5873 5873 5873 5873 5873 5873 5873 5873 5873 5873
5872 5872 5871 5871 5871 5871 5871 5871 5871 5870 5870 5870 5870 5870 5870 5870 5870 5870 5870 5870 5870 5870 5870 5870 5870 5870 5870 5870 5870 5870 5870 5870 5871 5871 5871 5871 5871 5871 5871 5871 5871 5871 5871
5870 5870 5870 5870 5870 5869 5869 5870 5869 5869 5869 5868 5869 5869 5869 5868 5869 5869 5869 5869 5869 5869 5869 5869 5869 5869 5869 5869 5869 5869 5869 5869 5869 5869 5869 5869 5869 5869 5869 5869 5869 5869 5869
5869 5869 5869 5869 5868 5868 5868 5868 5868 5868 5868 5868 5867 5867 5867 5867 5867 5867 5867 5867 5867 5867 5867 5867 5867 5867 5867 5867 5867 5867 5867 5867 5867 5868 5868 5868 5867 5868 5868 5867 5867 5867 5867
5867 5867 5867 5867 5867 5867 5867 5867 5867 5867 5866 5866 5866 5866 5866 5866 5866 5866 5866 5866 5866 5866 5866 5866 5866 5866 5866 5865 5866 5866 5865 5865 5865 5866 5866 5866 5865 5866 5866 5865 5865 5865 5865
5866 5866 5866 5866 5866 5865 5865 5865 5865 5865 5865 5865 5864 5864 5864 5864 5865 5865 5865 5865 5865 5865 5865 5865 5865 5864 5864 5864 5864 5864 5864 5863 5863 5864 5864 5864 5863 5863 5863 5863 5862 5863 5863
5864 5864 5864 5864 5864 5864 5864 5864 5864 5864 5864 5863 5863 5863 5863 5863 5863 5864 5864 5864 5863 5863 5863 5863 5863 5863 5862 5862 5862 5862 5861 5861 5861 5861 5861 5861 5861 5861 5861 5861 5860 5860 5860
5863 5863 5863 5863 5863 5863 5863 5862 5862 5862 5862 5862 5861 5861 5862 5862 5862 5862 5862 5862 5862 5861 5861 5861 5861 5861 5860 5860 5860 5860 5859 5859 5859 5859 5859 5859 5859 5859 5859 5858 5858 5858 5858
5861 5861 5861 5861 5861 5861 5861 5861 5861 5861 5860 5860 5860 5860 5860 5860 5860 5860 5860 5860 5860 5860 5859 5859 5859 5858 5858 5858 5858 5857 5857 5857 5857 5857 5857 5857 5857 5857 5856 5856 5856 5856 5856
5860 5860 5860 5860 5860 5860 5860 5860 5860 5859 5859 5859 5858 5858 5858 5858 5858 5858 5858 5858 5858 5857 5857 5857 5857 5856 5856 5856 5855 5855 5855 5855 5855 5855 5855 5855 5855 5854 5854 5854 5854 5853 5853
5859 5859 5859 5859 5858 5858 5858 5858 5858 5858 5857 5857 5857 5856 5856 5856 5856 5856 5855 5855 5855 5855 5855 5854 5854 5854 5854 5853 5853 5853 5853 5853 5852 5852 5852 5852 5852 5852 5852 5851 5851 5851 5851
5858 5858 5858 5857 5857 5857 5856 5856 5856 5856 5856 5855 5855 5855 5854 5854 5854 5854 5853 5853 5853 5853 5852 5852 5852 5852 5851 5851 5851 5851 5850 5850 5850 5850 5850 5850 5849 5849 5849 5849 5849 5848 5848
5857 5857 5856 5856 5856 5855 5855 5855 5855 5855 5854 5854 5853 5853 5853 5852 5852 5852 5851 5851 5851 5850 5850 5849 5849 5849 5849 5849 5848 5848 5848 5848 5847 5847 5847 5847 5846 5846 5846 5846 5845 5845 5845
5856 5856 5855 5855 5855 5854 5854 5853 5853 5853 5853 5852 5852 5851 5851 5851 5850 5850 5849 5849 5848 5848 5847 5846 5846 5846 5846 5846 5846 5845 5845 5845 5844 5844 5844 5843 5843 5843 5843 5842 5842 5842 5842
5855 5855 5854 5854 5854 5853 5853 5852 5852 5851 5851 5851 5850 5850 5850 5849 5848 5848 5847 5846 5846 5845 5844 5844 5844 5843 5843 5843 5843 5843 5843 5843 5842 5841 5841 5840 5840 5840 5839 5839 5839 5838 5838
5853 5853 5853 5853 5852 5852 5851 5851 5851 5850 5850 5849 5849 5848 5848 5847 5846 5846 5845 5844 5844 5843 5842 5842 5841 5841 5840 5840 5840 5840 5840 5839 5839 5838 5838 5837 5837 5836 5836 5835 5835 5834 5834
5852 5852 5851 5851 5851 5850 5850 5849 5849 5848 5848 5847 5847 5846 5845 5845 5844 5843 5843 5842 5841 5841 5840 5839 5839 5838 5838 5837 5837 5837 5837 5836 5836 5835 5834 5834 5833 5832 5832 5831 5831 5830 5830
5850 5850 5849 5849 5849 5848 5848 5847 5847 5847 5846 5845 5845 5844 5843 5842 5842 5841 5840 5840 5839 5838 5838 5837 5836 5835 5835 5835 5834 5834 5833 5833 5832 5832 5831 5830 5829 5829 5828 5827 5827 5826 5826
5848 5848 5847 5847 5847 5846 5846 5845 5845 5845 5844 5843 5842 5842 5841 5840 5839 5839 5838 5837 5836 5836 5835 5834 5833 5832 5832 5831 5831 5830 5830 5829 5828 5828 5827 5826 5825 5825 5824 5823 5822 5822 5822